Flag Weather past 2 weeks in Cozumel, Quintana Roo, Mexico

Now
70 °F

Passing clouds.


Feels Like: 70 °F
Forecast: 72 / 77 °F
Wind: 9 mph from Northeast

Location: Cozumel Civ / Mil

Current Time: Nov 28, 2014 at 6:46:14 PM

Latest Report: Nov 28, 2014 at 5:51 PM


Visibility: 7 mi

Pressure: 30.10 "Hg

Humidity: 73%

Dew point: 61 °F

Location of CozumelLocation

Historic Weather in Cozumel — Graph

°F

Cozumel temperature yesterday

Maximum temperature yesterday: 73 °F (at 10:40 AM)
Minimum temperature yesterday: 70 °F (at 12:46 AM)
Average temperature yesterday: 71 °F

Past Weeks' High & Low Weather Summary

 TemperatureHumidityPressure
High82 °F (Nov 17, 10:40 AM)100% (Nov 15, 4:55 AM)30.25 "Hg (Nov 15, 4:55 AM)
Low64 °F (Nov 15, 5:45 AM)61% (Nov 28, 11:45 AM)29.80 "Hg (Nov 23, 5:41 PM)
Average73 °F89%30.03 "Hg
* Reported Nov 13 5:48 PM — Nov 28 5:51 PM, Cozumel, Weather by CustomWeather, © 2014

Note: Actual official high and low records may vary slightly from our data, if they occured in-between our weather recording intervals... More about our weather records

Advertising

Cozumel weather history for previous 24 hours

 ConditionsComfort  
Time TempWeatherWind HumidityBarometerVisibility
5:51 PM
Nov 28
70 °FPassing clouds.9 mph73%30.10 "Hg7 mi
4:47 PM72 °FScattered clouds.8 mph69%30.11 "Hg8 mi
3:43 PM72 °FScattered clouds.14 mph73%30.11 "Hg8 mi
2:40 PM72 °FScattered clouds.16 mph69%30.14 "Hg8 mi
1:43 PM73 °FScattered clouds.17 mph69%30.13 "Hg8 mi
12:47 PM72 °FScattered clouds.9 mph73%30.15 "Hg8 mi
11:45 AM75 °FScattered clouds.21 mph61%30.15 "Hg8 mi
10:41 AM75 °FScattered clouds.20 mph65%30.20 "Hg8 mi
9:46 AM73 °FScattered clouds.15 mph69%30.21 "Hg8 mi
8:42 AM73 °FScattered clouds.16 mph65%30.23 "Hg8 mi
7:42 AM73 °FScattered clouds.17 mph65%30.19 "Hg8 mi
6:49 AM72 °FScattered clouds.14 mph69%30.18 "Hg7 mi
5:42 AM70 °FPassing clouds.9 mph83%30.13 "Hg7 mi
4:40 AM72 °FPassing clouds.15 mph69%30.15 "Hg7 mi
3:54 AM72 °FPassing clouds.10 mph69%30.14 "Hg7 mi
2:40 AM72 °FPassing clouds.12 mph73%30.17 "Hg7 mi
1:52 AM72 °FPassing clouds.12 mph69%30.16 "Hg7 mi
12:50 AM72 °FPassing clouds.14 mph69%30.17 "Hg7 mi
11:45 PM
Nov 27
72 °FPassing clouds.15 mph69%30.15 "Hg7 mi
10:40 PM72 °FPassing clouds.16 mph73%30.20 "Hg7 mi
9:41 PM72 °FPassing clouds.18 mph69%30.20 "Hg7 mi
8:48 PM72 °FPassing clouds.12 mph73%30.22 "Hg7 mi
7:45 PM72 °FPassing clouds.13 mph69%30.19 "Hg7 mi
6:46 PM72 °FPassing clouds.16 mph69%30.18 "Hg7 mi
Weather by CustomWeather, © 2014

See weather overviewHow to use our weather pages